PBO Station Position Time Series. Reference Frame : NAM14
Format Version,1.1.1
4-character ID,P734
Station name,Brookings_OR2007
Begin Date, 2007-10-10
End Date, 2023-06-26
Release Date, 2023-06-27
Reference position, 42.0766349803 North Latitude, -124.2932570577 East Longitude, 113.33267 meters elevation,
Date, North (mm), East (mm), Vertical (mm), North Std. Deviation (mm), East Std. Deviation (mm),              Vertical Std. Deviation (mm), Quality,
2007-10-10,0.00, 0.00, 0.00, 2.32, 1.71, 7.80, repro,
2007-10-11,-3.05, 0.26, 5.01, 2.14, 1.64, 7.32, repro,
2007-10-12,-1.13, -1.64, 5.59, 2.11, 1.60, 7.25, repro,
2007-10-13,-3.09, -1.66, 9.95, 2.10, 1.59, 7.15, repro,
2007-10-14,-2.05, -1.08, 2.64, 2.09, 1.58, 7.10, repro,
2007-10-15,-2.17, -2.10, 6.55, 2.14, 1.65, 7.25, repro,
2007-10-16,-3.56, -0.75, 8.93, 2.10, 1.63, 7.28, repro,
2007-10-17,-2.16, -0.17, 8.68, 2.10, 1.60, 7.18, repro,
2007-10-18,-0.71, -0.34, 12.67, 2.10, 1.60, 7.17, repro,
2007-10-19,-2.54, -0.76, 4.15, 2.18, 1.69, 7.69, repro,
2007-10-20,-2.45, -0.62, 12.68, 2.14, 1.62, 7.32, repro,
2007-10-21,-2.79, 1.33, 3.64, 2.09, 1.59, 7.14, repro,
2007-10-22,-2.03, 0.20, 3.75, 2.09, 1.58, 7.18, repro,
2007-10-23,-2.43, -0.06, 2.85, 2.15, 1.64, 7.33, repro,
2007-10-24,-3.72, 0.02, 4.34, 2.20, 1.68, 7.53, repro,
2007-10-25,-2.50, 0.35, 2.04, 2.11, 1.59, 7.18, repro,
2007-10-26,-1.32, -0.80, 2.66, 2.13, 1.64, 7.32, repro,
2007-10-27,-1.13, -0.09, 1.40, 2.12, 1.64, 7.32, repro,
2007-10-28,-2.09, -0.45, 0.83, 2.08, 1.59, 7.13, repro,
2007-10-29,-2.87, -1.62, 2.59, 2.09, 1.60, 7.20, repro,
2007-10-30,-2.11, 0.30, 4.29, 2.15, 1.61, 7.36, repro,
2007-10-31,-2.07, -0.21, 2.65, 2.09, 1.59, 7.18, repro,
2007-11-01,-1.78, 0.39, 1.94, 2.05, 1.55, 6.97, repro,
2007-11-02,0.68, 1.88, 0.81, 2.05, 1.55, 6.97, repro,
2007-11-03,-1.98, 0.78, 0.82, 2.05, 1.56, 6.99, repro,
2007-11-04,-2.46, -0.80, 3.68, 2.06, 1.57, 6.99, repro,
2007-11-05,-1.55, -0.18, -4.13, 2.05, 1.56, 6.96, repro,
2007-11-06,-1.34, -1.28, -3.42, 2.13, 1.64, 7.34, repro,
2007-11-07,-1.29, -0.78, -1.89, 2.06, 1.55, 6.98, repro,
2007-11-08,-1.51, -0.84, 1.33, 2.10, 1.60, 7.13, repro,
2007-11-09,-0.56, -1.03, -0.44, 2.12, 1.59, 7.14, repro,
2007-11-10,-1.27, -1.42, -1.13, 2.09, 1.58, 7.14, repro,
2007-11-11,-2.25, -0.76, 0.98, 2.07, 1.58, 7.11, repro,
2007-11-12,-1.74, 2.08, 2.52, 2.07, 1.56, 7.08, repro,
2007-11-13,0.46, 0.00, 3.35, 2.06, 1.56, 7.08, repro,
2007-11-14,-0.20, -0.85, 1.61, 2.09, 1.58, 7.12, repro,
2007-11-15,1.65, -0.86, -9.59, 2.12, 1.61, 7.28, repro,
2007-11-16,-1.12, -0.64, -1.91, 2.08, 1.61, 7.23, repro,
2007-11-17,-0.80, 0.52, 2.05, 2.07, 1.57, 7.10, repro,
2007-11-18,-0.02, -1.46, 3.01, 2.04, 1.57, 6.97, repro,
2007-11-19,-1.95, -1.65, 2.59, 2.05, 1.57, 6.99, repro,
2007-11-20,0.49, 0.09, -11.36, 2.07, 1.61, 7.13, repro,
2007-11-21,-1.44, -0.31, -3.66, 2.07, 1.62, 7.17, repro,
2007-11-22,-1.22, -0.60, -12.32, 2.06, 1.58, 7.06, repro,
2007-11-23,-0.59, -0.02, -1.92, 2.09, 1.65, 7.28, repro,
2007-11-24,-1.36, -1.68, -2.51, 2.06, 1.60, 7.12, repro,
2007-11-25,-0.84, -2.39, 1.85, 2.07, 1.60, 7.11, repro,
2007-11-26,-1.12, -1.20, -8.77, 2.15, 1.70, 7.48, repro,
2007-11-27,-1.87, -0.65, 2.84, 2.12, 1.64, 7.27, repro,
2007-11-28,0.68, -0.52, -7.25, 2.13, 1.65, 7.28, repro,
2007-11-29,-2.05, -0.88, -8.33, 2.12, 1.64, 7.32, repro,
2007-11-30,0.33, -1.94, -11.36, 2.19, 1.70, 7.48, repro,
2007-12-01,-2.22, -2.16, 0.49, 2.18, 1.75, 7.62, repro,
2007-12-02,-0.42, -1.15, 1.61, 2.15, 1.70, 7.59, repro,
2007-12-03,-0.52, -0.23, -3.05, 2.21, 1.73, 7.77, repro,
2007-12-04,-2.09, -2.45, 1.53, 2.27, 1.83, 7.97, repro,
2007-12-05,-1.18, -0.37, -4.17, 2.22, 1.80, 7.99, repro,
2007-12-06,-0.28, -0.07, 1.51, 2.30, 1.95, 8.40, repro,
2007-12-07,-0.76, -0.38, -8.81, 2.24, 1.82, 7.90, repro,
2007-12-08,-0.01, 0.99, -0.59, 2.14, 1.69, 7.44, repro,
2007-12-09,1.28, 1.52, -2.54, 2.43, 2.14, 8.89, repro,
2007-12-10,0.51, -1.37, -1.09, 2.17, 1.72, 7.47, repro,
2007-12-11,0.09, 0.94, -4.34, 2.17, 1.70, 7.43, repro,
2007-12-12,-1.00, -0.57, -9.96, 2.13, 1.64, 7.33, repro,
2007-12-13,-1.47, 0.41, -8.45, 2.14, 1.63, 7.32, repro,
2007-12-14,-1.22, 1.13, -2.52, 2.45, 1.97, 8.48, repro,
2007-12-15,0.73, 0.12, 3.34, 2.13, 1.60, 7.24, repro,
2007-12-16,-1.07, -0.32, -1.15, 2.14, 1.61, 7.28, repro,
2007-12-17,-2.92, -1.73, 3.97, 2.13, 1.60, 7.23, repro,
2007-12-18,-0.92, -1.79, 0.10, 2.12, 1.60, 7.19, repro,
2007-12-19,-0.29, -0.16, 0.43, 2.18, 1.67, 7.45, repro,
2007-12-20,-0.96, -0.82, 4.09, 2.18, 1.69, 7.50, repro,
2007-12-21,-0.74, 0.44, -5.95, 2.20, 1.72, 7.71, repro,
2007-12-22,0.32, -1.83, -1.38, 2.26, 1.76, 7.91, repro,
2007-12-23,-0.65, 1.66, -2.91, 2.16, 1.66, 7.44, repro,
2007-12-24,-0.64, -0.35, -2.18, 2.12, 1.63, 7.28, repro,
2007-12-25,-1.74, 0.52, -3.30, 2.15, 1.66, 7.41, repro,
2007-12-26,-1.38, 1.08, -4.12, 2.14, 1.61, 7.26, repro,
2007-12-27,-0.72, 0.52, 3.39, 2.18, 1.65, 7.49, repro,
2007-12-28,-0.81, -0.40, 1.01, 2.18, 1.64, 7.47, repro,
2007-12-29,-1.61, 0.82, 1.52, 2.15, 1.60, 7.26, repro,
2007-12-30,-1.23, -0.54, -2.72, 2.17, 1.63, 7.38, repro,
2007-12-31,0.30, 1.97, -9.06, 2.11, 1.57, 7.12, repro,
2008-01-01,-1.35, 1.30, -7.37, 2.13, 1.57, 7.18, repro,
2008-01-02,-1.02, -0.50, -3.96, 2.14, 1.58, 7.23, repro,
2008-01-03,-2.02, -0.86, 7.69, 2.09, 1.53, 7.02, repro,
2008-01-04,-1.74, -3.00, 8.95, 2.10, 1.54, 7.05, repro,
2008-01-05,-3.21, -1.49, 11.55, 2.13, 1.59, 7.11, repro,
2008-01-06,0.13, -0.26, -0.26, 2.10, 1.54, 7.04, repro,
2008-01-07,-1.21, 0.69, -0.79, 2.10, 1.55, 7.09, repro,
2008-01-08,-1.36, 0.85, -2.04, 2.15, 1.56, 7.19, repro,
2008-01-09,-2.29, 1.00, -4.19, 2.13, 1.56, 7.15, repro,
2008-01-10,-3.06, -0.50, -0.60, 2.09, 1.56, 7.08, repro,
2008-01-11,-2.04, 1.51, -0.80, 2.08, 1.54, 7.01, repro,
2008-01-12,-2.24, 1.37, -4.19, 2.09, 1.57, 7.11, repro,
2008-01-13,-2.41, 1.73, -15.87, 2.09, 1.55, 7.04, repro,
2008-01-14,-1.73, 0.15, -14.35, 2.07, 1.55, 7.00, repro,
2008-01-15,-1.66, 2.73, -8.59, 2.08, 1.55, 7.00, repro,
2008-01-16,-1.07, -0.07, 1.37, 2.11, 1.56, 7.12, repro,
2008-01-17,-0.95, -0.01, 3.43, 2.10, 1.56, 7.11, repro,
2008-01-18,-0.58, 0.83, -0.67, 2.09, 1.58, 7.14, repro,
2008-01-19,-1.52, 0.13, -6.81, 2.07, 1.55, 7.02, repro,
2008-01-20,-2.05, 0.46, -6.74, 2.07, 1.54, 6.98, repro,
2008-01-21,-2.36, 0.63, -3.66, 2.11, 1.60, 7.22, repro,
2008-01-22,-1.85, 1.39, -4.86, 2.07, 1.57, 7.07, repro,
2008-01-23,-2.17, 0.40, -2.07, 2.05, 1.55, 6.93, repro,
2008-01-24,-2.39, 0.19, -2.74, 2.07, 1.55, 7.01, repro,
2008-01-25,-2.03, -0.10, 3.66, 2.06, 1.54, 7.00, repro,
2008-01-26,-2.68, 0.58, 0.89, 2.07, 1.54, 6.99, repro,
2008-01-27,-2.81, 0.47, -1.28, 2.07, 1.55, 6.98, repro,
2008-01-28,-2.36, 0.01, 1.99, 2.07, 1.56, 7.03, repro,
2008-01-29,-1.71, 1.09, -0.28, 2.18, 1.68, 7.44, repro,
2008-01-30,-1.82, 0.96, -3.94, 2.17, 1.63, 7.38, repro,
2008-01-31,-1.97, 1.37, -1.90, 2.06, 1.55, 7.01, repro,
2008-02-01,-2.43, 1.75, -4.07, 2.07, 1.55, 7.01, repro,
2008-02-02,-1.94, 1.88, -3.12, 2.06, 1.56, 7.02, repro,
2008-02-03,-3.01, -0.17, -2.16, 2.06, 1.56, 7.01, repro,
2008-02-04,0.77, 1.25, -9.54, 2.06, 1.56, 7.04, repro,
2008-02-05,-3.22, 3.22, -4.85, 2.09, 1.62, 7.21, repro,
2008-02-06,-1.06, 2.23, -2.09, 2.11, 1.61, 7.19, repro,
2008-02-07,-2.45, 1.10, -2.05, 2.11, 1.60, 7.24, repro,
2008-02-08,-3.29, 2.60, -8.43, 2.07, 1.56, 7.06, repro,
2008-02-09,-2.52, 2.83, -7.59, 2.06, 1.55, 6.98, repro,
2008-02-10,-2.30, 1.97, -3.73, 2.05, 1.57, 7.02, repro,
2008-02-11,-2.96, 2.53, -2.83, 2.06, 1.56, 7.01, repro,
2008-02-12,-2.49, 2.19, -0.79, 2.07, 1.55, 6.98, repro,
2008-02-13,-0.15, 2.82, -10.45, 2.07, 1.56, 7.03, repro,
2008-02-14,-0.78, 1.46, -8.10, 2.07, 1.55, 7.02, repro,
2008-02-15,-1.00, 0.75, -5.20, 2.08, 1.60, 7.12, repro,
2008-02-16,-2.03, 1.19, -4.30, 2.05, 1.55, 6.97, repro,
2008-02-17,-2.80, 2.22, -2.98, 2.06, 1.54, 6.96, repro,
2008-02-18,-2.99, 1.50, -6.35, 2.37, 1.99, 8.51, repro,
2008-02-19,-2.30, 0.81, -6.90, 2.06, 1.54, 6.95, repro,
2008-02-20,-2.90, 1.09, -5.06, 2.06, 1.55, 7.00, repro,
2008-02-21,-2.46, 0.35, 5.37, 2.05, 1.55, 6.97, repro,
2008-02-22,-2.43, 0.64, -0.83, 2.10, 1.60, 7.16, repro,
2008-02-23,-3.11, 0.94, -3.79, 2.07, 1.56, 7.03, repro,
2008-02-24,-3.96, 0.43, -1.93, 2.07, 1.55, 7.01, repro,
2008-02-25,-3.12, 1.18, -12.11, 2.07, 1.55, 7.00, repro,
2008-02-26,-3.17, 1.94, -11.98, 2.05, 1.55, 6.97, repro,
2008-02-27,-2.03, 2.40, -12.09, 2.09, 1.59, 7.14, repro,
2008-02-28,-1.47, 1.51, -6.38, 2.06, 1.55, 6.98, repro,
2008-02-29,-1.88, 1.09, -3.20, 2.06, 1.55, 6.97, repro,
2008-03-01,-2.52, 2.05, -5.71, 2.07, 1.56, 7.06, repro,
2008-03-02,-1.09, 4.69, -11.55, 2.10, 1.58, 7.11, repro,
2008-03-03,-1.96, 2.84, -4.17, 2.06, 1.57, 7.09, repro,
2008-03-04,-2.82, 0.11, -5.17, 2.06, 1.57, 7.06, repro,
2008-03-05,-1.69, 2.25, -5.96, 2.12, 1.65, 7.39, repro,
2008-03-06,-3.93, 0.94, -0.37, 2.09, 1.55, 7.04, repro,
2008-03-07,-2.67, 1.68, -10.31, 2.08, 1.55, 7.01, repro,
2008-03-08,-2.96, 1.63, -0.20, 2.16, 1.66, 7.47, repro,
2008-03-09,-2.30, 1.48, -6.59, 2.08, 1.60, 7.23, repro,
2008-03-10,-2.92, 2.14, 3.53, 2.06, 1.56, 6.99, repro,
2008-03-11,-0.20, 1.83, -8.27, 2.04, 1.55, 6.95, repro,
2008-03-12,-1.05, 0.41, -10.54, 2.09, 1.58, 7.20, repro,
2008-03-13,-2.35, 1.30, 2.38, 2.12, 1.61, 7.29, repro,
2008-03-14,-3.76, 0.18, 5.54, 2.08, 1.58, 7.10, repro,
2008-03-15,-0.78, 0.83, -5.47, 2.06, 1.57, 7.05, repro,
2008-03-16,-1.30, 2.44, -2.72, 2.09, 1.59, 7.14, repro,
2008-03-17,-2.53, 1.61, -5.13, 2.19, 1.69, 7.68, repro,
2008-03-18,-1.79, 2.42, -6.65, 2.13, 1.62, 7.32, repro,
2008-03-19,-3.49, 1.14, -3.94, 2.11, 1.59, 7.20, repro,
2008-03-20,-1.42, 1.43, -5.26, 2.09, 1.60, 7.23, repro,
2008-03-21,-2.00, 1.52, -5.16, 2.09, 1.59, 7.16, repro,
2008-03-22,-2.77, 1.15, -10.88, 2.09, 1.57, 7.11, repro,
2008-03-23,-2.25, 0.34, -11.19, 2.11, 1.59, 7.21, repro,
2008-03-24,-1.43, 1.05, -7.56, 2.10, 1.59, 7.23, repro,
2008-03-25,-1.87, 0.81, -0.82, 2.13, 1.63, 7.39, repro,
2008-03-26,-2.48, 1.50, -0.91, 2.11, 1.61, 7.24, repro,
2008-03-27,-1.81, 0.83, -9.46, 2.13, 1.61, 7.28, repro,
2008-03-28,-2.82, 0.06, -5.58, 2.12, 1.58, 7.17, repro,
2008-03-29,-0.62, 1.91, -1.17, 2.10, 1.57, 7.14, repro,
2008-03-30,-1.63, 1.11, -2.15, 2.08, 1.55, 7.07, repro,
2008-03-31,0.03, 1.87, -3.16, 2.08, 1.55, 7.08, repro,
2008-04-01,-2.01, 1.66, -2.86, 2.08, 1.55, 7.05, repro,
2008-04-02,-1.49, 0.22, -2.08, 2.15, 1.56, 7.21, repro,
2008-04-03,-2.09, 0.83, -5.05, 2.11, 1.55, 7.13, repro,
2008-04-04,-1.43, 0.21, -7.48, 2.09, 1.56, 7.12, repro,
2008-04-05,-1.68, 0.77, -1.66, 2.07, 1.55, 7.10, repro,
2008-04-06,-1.52, 0.69, -2.66, 2.09, 1.55, 7.09, repro,
2008-04-07,-2.26, -0.99, -5.45, 2.09, 1.55, 7.05, repro,
2008-04-08,-2.42, -0.63, -1.32, 2.15, 1.60, 7.34, repro,
2008-04-09,-2.66, -0.75, 0.32, 2.11, 1.56, 7.18, repro,
2008-04-10,-1.50, -0.07, -4.59, 2.07, 1.55, 7.08, repro,
2008-04-11,-1.87, 0.44, -3.16, 2.07, 1.55, 7.09, repro,
2008-04-12,-1.94, 1.33, -6.18, 2.08, 1.55, 7.11, repro,
2008-04-13,-1.72, -0.03, -2.61, 2.09, 1.55, 7.09, repro,
2008-04-14,-1.93, 0.12, -2.70, 2.15, 1.61, 7.42, repro,
2008-04-15,-2.34, -0.47, -0.08, 2.13, 1.61, 7.28, repro,
2008-04-16,-2.91, 0.20, -0.36, 2.11, 1.60, 7.24, repro,
2008-04-17,-1.48, 0.02, -4.71, 2.08, 1.54, 7.09, repro,
2008-04-18,-1.48, 0.64, -2.26, 2.10, 1.55, 7.12, repro,
2008-04-19,-1.71, 0.58, -2.08, 2.11, 1.55, 7.14, repro,
2008-04-20,-2.23, 1.40, -7.66, 2.10, 1.56, 7.20, repro,
2008-04-21,-2.09, 0.81, -4.24, 2.09, 1.55, 7.13, repro,
2008-04-22,-3.01, 1.02, -0.66, 2.10, 1.56, 7.17, repro,
2008-04-23,-3.49, -0.01, 0.89, 2.18, 1.63, 7.41, repro,
2008-04-24,-1.52, 1.20, -3.42, 2.12, 1.58, 7.27, repro,
2008-04-25,-1.81, 1.41, -8.56, 2.09, 1.55, 7.12, repro,
2008-04-26,-1.15, 0.94, -4.90, 2.25, 1.65, 7.49, repro,
2008-04-27,-2.38, 0.60, -5.96, 2.20, 1.59, 7.40, repro,
2008-04-28,-2.09, 0.03, -6.03, 2.18, 1.58, 7.29, repro,
2008-04-29,-1.08, 0.73, -6.71, 2.24, 1.58, 7.37, repro,
2008-04-30,-0.93, 1.28, -5.79, 2.16, 1.60, 7.32, repro,
2008-05-01,-2.66, 1.60, -3.95, 2.12, 1.57, 7.25, repro,
2008-05-02,-2.18, 0.39, 2.80, 2.14, 1.59, 7.35, repro,
2008-05-03,-1.86, -0.24, -1.24, 2.11, 1.56, 7.23, repro,
2008-05-04,1.22, 0.89, -6.41, 2.10, 1.56, 7.21, repro,
2008-05-05,-2.48, 0.34, -5.38, 2.15, 1.59, 7.28, repro,
2008-05-06,-0.97, -0.41, -7.63, 2.15, 1.60, 7.33, repro,
2008-05-07,-3.46, 0.69, -6.15, 2.13, 1.60, 7.37, repro,
2008-05-08,-1.74, 1.08, -4.60, 2.17, 1.65, 7.56, repro,
2008-05-09,-3.17, 1.08, -5.81, 2.14, 1.57, 7.30, repro,
2008-05-10,-2.03, 1.36, -4.69, 2.14, 1.59, 7.26, repro,
2008-05-11,-1.29, 0.46, -4.49, 2.12, 1.56, 7.21, repro,
2008-05-12,-2.55, 1.57, 1.64, 2.16, 1.60, 7.36, repro,
2008-05-13,-1.84, 1.53, 4.46, 2.14, 1.59, 7.31, repro,
2008-05-14,-1.49, 0.91, -3.18, 2.13, 1.56, 7.26, repro,
2008-05-15,-0.60, 1.58, -3.11, 2.11, 1.54, 7.17, repro,
2008-05-16,-2.09, -0.79, -7.62, 2.09, 1.54, 7.07, repro,
2008-05-17,-1.99, 0.05, -2.40, 2.13, 1.57, 7.25, repro,
2008-05-18,-2.74, 0.93, 2.57, 2.15, 1.60, 7.32, repro,
2008-05-19,-2.05, -0.33, -2.33, 2.16, 1.62, 7.49, repro,
2008-05-20,-1.82, 0.49, -1.16, 2.10, 1.55, 7.21, repro,
2008-05-21,-0.07, 1.60, -1.58, 2.10, 1.54, 7.14, repro,
2008-05-22,-3.81, 1.46, -4.56, 2.12, 1.60, 7.34, repro,
2008-05-23,-2.87, 2.90, 2.67, 2.12, 1.60, 7.36, repro,
2008-05-24,-2.24, 0.09, 2.44, 2.10, 1.56, 7.17, repro,
2008-05-25,-1.85, 0.51, 2.45, 2.10, 1.55, 7.15, repro,
2008-05-26,-2.26, 0.12, -2.28, 2.10, 1.57, 7.20, repro,
2008-05-27,-1.72, 1.19, -1.62, 2.08, 1.52, 7.04, repro,
2008-05-28,-0.91, 0.72, -2.88, 2.12, 1.59, 7.26, repro,
2008-05-29,-1.00, 0.27, 2.23, 2.15, 1.58, 7.26, repro,
2008-05-30,-1.56, 0.71, 0.97, 2.11, 1.55, 7.20, repro,
2008-05-31,-0.51, 0.86, 0.84, 2.09, 1.55, 7.15, repro,
2008-06-01,-1.44, 0.81, -1.04, 2.09, 1.53, 7.06, repro,
2008-06-02,-0.58, 0.77, -6.37, 2.09, 1.53, 7.09, repro,
2008-06-03,-0.74, 1.54, -2.27, 2.16, 1.60, 7.42, repro,
2008-06-04,-1.52, 0.54, 7.04, 2.10, 1.55, 7.09, repro,
2008-06-05,-0.81, 0.47, 0.46, 2.10, 1.56, 7.16, repro,
2008-06-06,-0.22, 0.39, -1.66, 2.13, 1.57, 7.19, repro,
2008-06-07,-1.67, 2.08, -3.50, 2.17, 1.61, 7.39, repro,
2008-06-08,1.21, 0.92, -7.45, 2.15, 1.59, 7.29, repro,
2008-06-09,-2.04, 0.47, -3.45, 2.18, 1.62, 7.34, repro,
2008-06-10,1.50, 1.51, 0.70, 2.10, 1.55, 7.12, repro,
2008-06-11,2.15, 4.70, -5.81, 2.18, 1.63, 7.42, repro,
2008-06-12,-0.64, 0.75, -7.41, 2.11, 1.56, 7.19, repro,
2008-06-13,1.76, 1.48, -7.44, 2.13, 1.57, 7.20, repro,
2008-06-14,2.83, 1.10, -6.27, 2.16, 1.61, 7.36, repro,
2008-06-15,-1.31, 1.12, 0.55, 2.15, 1.59, 7.26, repro,
2008-06-16,0.38, 0.35, -5.21, 2.10, 1.55, 7.16, repro,
2008-06-17,-1.02, 0.94, -2.93, 2.10, 1.53, 7.10, repro,
2008-06-18,-0.59, 1.23, -9.79, 2.09, 1.53, 7.07, repro,
2008-06-19,-0.46, -0.00, -4.49, 2.19, 1.66, 7.64, repro,
2008-06-20,-0.35, 0.17, -1.41, 2.10, 1.55, 7.13, repro,
2008-06-21,-1.39, 0.93, -4.29, 2.27, 1.74, 8.00, repro,
2008-06-22,-0.01, 0.75, -4.12, 2.10, 1.54, 7.10, repro,
2008-06-23,-1.26, 0.69, -1.53, 2.10, 1.52, 7.05, repro,
2008-06-24,0.13, 0.81, -2.74, 2.10, 1.53, 7.07, repro,
2008-06-25,0.22, 0.83, -6.18, 2.11, 1.54, 7.12, repro,
2008-06-26,-0.57, 0.21, 0.94, 2.13, 1.60, 7.30, repro,
2008-06-27,0.59, 0.57, 3.02, 2.09, 1.53, 7.05, repro,
2008-06-28,0.83, 0.20, -3.68, 2.10, 1.53, 7.08, repro,
2008-06-29,0.61, 1.39, -3.80, 2.17, 1.62, 7.38, repro,
2008-06-30,-1.68, -0.43, -2.40, 2.09, 1.53, 7.02, repro,
2008-07-01,-1.14, 0.05, -5.25, 2.11, 1.54, 7.12, repro,
2008-07-02,0.51, 0.62, 1.55, 2.09, 1.54, 7.09, repro,
2008-07-03,-0.65, 0.46, 7.41, 2.10, 1.54, 7.11, repro,
2008-07-04,0.05, 0.59, 3.65, 2.08, 1.53, 7.06, repro,
2008-07-05,-0.04, -0.38, 1.52, 2.09, 1.54, 7.07, repro,
2008-07-06,0.40, 1.02, -4.82, 2.11, 1.55, 7.16, repro,
2008-07-07,0.28, 3.07, -2.44, 2.14, 1.61, 7.31, repro,
2008-07-08,-2.06, -2.86, 2.39, 2.10, 1.53, 7.08, repro,
2008-07-09,1.90, 2.14, 6.95, 2.09, 1.53, 7.04, repro,
2008-07-10,1.81, 0.58, -2.88, 2.14, 1.58, 7.21, repro,
2008-07-11,-2.02, -1.11, 0.94, 2.18, 1.59, 7.30, repro,
2008-07-12,0.68, -0.26, 2.40, 2.12, 1.54, 7.15, repro,
2008-07-13,-0.80, 1.00, 8.13, 2.17, 1.61, 7.40, repro,
2008-07-14,-0.60, 0.30, 8.26, 2.14, 1.55, 7.24, repro,
2008-07-15,-1.08, 0.71, -0.83, 2.11, 1.53, 7.11, repro,
2008-07-16,-0.52, -0.18, -0.83, 2.08, 1.54, 7.03, repro,
2008-07-17,-1.00, 0.98, 0.87, 2.10, 1.54, 7.09, repro,
2008-07-18,-1.12, 1.30, 4.89, 2.23, 1.60, 7.45, repro,
2008-07-19,-1.00, -0.41, 3.60, 2.58, 2.13, 9.37, repro,
2008-07-20,0.12, -0.05, 8.28, 2.10, 1.53, 7.07, repro,
2008-07-21,-1.19, -0.85, 6.14, 2.12, 1.56, 7.23, repro,
2008-07-22,-1.97, 1.49, 9.72, 2.15, 1.62, 7.32, repro,
2008-07-23,-0.82, 1.75, 5.06, 2.17, 1.56, 7.28, repro,
2008-07-24,-1.30, 0.25, 4.98, 2.17, 1.61, 7.43, repro,
2008-07-25,-0.63, -0.25, 7.42, 2.12, 1.55, 7.16, repro,
2008-07-26,-1.33, 0.22, 8.31, 2.08, 1.53, 7.03, repro,
2008-07-27,-1.23, -0.06, 3.42, 2.15, 1.65, 7.46, repro,
2008-07-28,-0.93, 0.41, 4.72, 2.18, 1.64, 7.40, repro,
2008-07-29,-1.60, 0.40, 12.28, 2.19, 1.57, 7.50, repro,
2008-07-30,-1.20, 1.67, 9.82, 2.19, 1.57, 7.50, repro,
2008-07-31,-2.05, 0.74, 8.00, 2.12, 1.54, 7.16, repro,
2008-08-01,-2.13, 0.92, 9.90, 2.10, 1.52, 7.05, repro,
2008-08-02,-0.44, -0.60, 9.69, 2.09, 1.53, 7.07, repro,
2008-08-03,-0.31, -0.26, 7.83, 2.13, 1.58, 7.29, repro,
2008-08-04,-1.17, 0.34, 6.41, 2.12, 1.55, 7.19, repro,
2008-08-05,-1.53, 0.04, 6.16, 2.12, 1.56, 7.21, repro,
2008-08-06,-1.09, -1.50, 3.72, 2.16, 1.55, 7.24, repro,
2008-08-07,-0.02, 0.47, 1.80, 2.20, 1.59, 7.30, repro,
2008-08-08,-0.22, -0.89, 5.26, 2.19, 1.59, 7.33, repro,
2008-08-09,-3.21, 0.35, 11.19, 2.16, 1.56, 7.29, repro,
2008-08-10,-0.87, 0.02, 3.62, 2.17, 1.57, 7.34, repro,
2008-08-11,-0.70, 0.00, 6.11, 2.16, 1.56, 7.27, repro,
2008-08-12,-2.50, 0.33, 16.84, 2.20, 1.61, 7.42, repro,
2008-08-13,-1.31, 1.48, 12.47, 2.15, 1.55, 7.23, repro,
2008-08-14,-2.00, -0.39, 7.38, 2.16, 1.56, 7.28, repro,
2008-08-15,-1.52, 0.87, 12.15, 2.18, 1.57, 7.36, repro,
2008-08-16,-1.36, -0.47, 6.72, 2.16, 1.56, 7.25, repro,
2008-08-17,-1.45, -0.08, 11.70, 2.16, 1.56, 7.28, repro,
2008-08-18,-0.98, -1.40, 10.22, 2.19, 1.59, 7.36, repro,
2008-08-19,-0.59, -0.73, 8.81, 2.17, 1.57, 7.33, repro,
2008-08-20,0.05, 1.44, 14.72, 2.19, 1.58, 7.38, repro,
2008-08-21,0.09, 0.58, 11.97, 2.17, 1.56, 7.29, repro,
2008-08-22,-0.31, -1.41, 9.39, 2.22, 1.59, 7.40, repro,
2008-08-23,-1.59, -1.02, 5.88, 2.15, 1.55, 7.21, repro,
2008-08-24,-0.49, -2.45, 10.57, 2.18, 1.59, 7.38, repro,
2008-08-25,-1.06, 0.71, 10.39, 2.22, 1.59, 7.43, repro,
2008-08-26,1.94, 1.05, 5.43, 2.17, 1.57, 7.32, repro,
2008-08-27,-0.25, -0.19, 12.05, 2.17, 1.58, 7.34, repro,
2008-08-28,1.25, -0.35, 14.42, 2.29, 1.66, 7.55, repro,
2008-08-29,0.26, 2.14, 9.73, 2.23, 1.64, 7.55, repro,
2008-08-30,-0.80, 1.16, 14.09, 2.21, 1.61, 7.49, repro,
2008-08-31,-1.20, 2.25, 4.47, 2.20, 1.58, 7.42, repro,
2008-09-01,3.73, 0.97, 7.42, 2.20, 1.60, 7.45, repro,
2008-09-02,-0.45, 0.08, 7.58, 2.17, 1.57, 7.31, repro,
2008-09-03,1.39, -0.01, 0.36, 2.18, 1.58, 7.31, repro,
2008-09-04,1.01, 0.99, 1.42, 2.30, 1.69, 7.86, repro,
2008-09-05,-2.82, -1.56, 0.47, 2.20, 1.61, 7.47, repro,
2008-09-06,1.71, 2.99, 10.97, 2.19, 1.59, 7.41, repro,
2008-09-07,-1.47, 0.36, 8.08, 2.18, 1.59, 7.37, repro,
2008-09-08,-2.38, 1.18, 7.18, 2.18, 1.58, 7.33, repro,
2008-09-09,-1.25, 0.58, 7.90, 2.23, 1.57, 7.38, repro,
2008-09-10,-0.77, 0.59, 1.03, 2.22, 1.60, 7.45, repro,
2008-09-11,-2.43, -0.72, 6.67, 2.23, 1.62, 7.57, repro,
2008-09-12,-1.43, -0.15, 7.06, 2.27, 1.67, 7.68, repro,
2008-09-13,-0.11, 0.57, 10.04, 2.22, 1.62, 7.53, repro,
2008-09-14,-0.36, 0.31, 6.62, 2.27, 1.67, 7.65, repro,
2008-09-15,-0.79, 1.05, 6.21, 2.22, 1.63, 7.53, repro,
2008-09-16,-0.90, -0.46, 4.59, 2.17, 1.61, 7.46, repro,
2008-09-17,-2.23, -0.56, -0.67, 2.25, 1.62, 7.55, repro,
2008-09-18,-1.09, -0.17, 3.28, 2.16, 1.56, 7.27, repro,
2008-09-19,0.73, 0.67, 0.54, 2.17, 1.56, 7.24, repro,
2008-09-20,-0.16, 0.17, 5.50, 2.21, 1.62, 7.48, repro,
2008-09-21,-1.07, -0.78, 7.30, 2.14, 1.54, 7.18, repro,
2008-09-22,0.85, -1.24, 1.13, 2.18, 1.58, 7.43, repro,
2008-09-23,-0.85, 0.22, 9.54, 2.15, 1.55, 7.21, repro,
2008-09-24,-1.03, -0.74, 4.71, 2.26, 1.65, 7.64, repro,
2008-09-25,-2.34, 0.39, 8.99, 2.20, 1.59, 7.37, repro,
2008-09-26,-0.23, 0.47, 3.73, 2.22, 1.63, 7.54, repro,
2008-09-27,-2.22, 0.48, 6.07, 2.19, 1.59, 7.36, repro,
2008-09-28,-1.13, -0.03, -1.21, 2.16, 1.54, 7.18, repro,
2008-09-29,-0.75, 0.56, 2.16, 2.19, 1.59, 7.31, repro,
2008-09-30,-0.57, -0.62, 7.92, 2.17, 1.55, 7.24, repro,
2008-10-01,-0.86, -0.30, 3.52, 2.17, 1.55, 7.21, repro,
2008-10-02,-2.05, -0.30, 12.05, 2.32, 1.70, 7.78, repro,
2008-10-03,-1.08, 0.20, 12.30, 2.20, 1.60, 7.37, repro,
2008-10-04,-2.32, -2.53, 10.91, 2.21, 1.57, 7.40, repro,
2008-10-05,-0.16, 0.15, 5.65, 2.17, 1.56, 7.25, repro,
2008-10-06,-0.20, 1.62, 9.22, 2.22, 1.62, 7.41, repro,
2008-10-07,-1.18, 0.33, 1.70, 2.19, 1.57, 7.29, repro,
2008-10-08,1.45, 2.40, -1.70, 2.18, 1.57, 7.25, repro,
2008-10-09,1.18, 1.58, -2.20, 2.11, 1.52, 7.04, repro,
2008-10-10,-1.36, 1.10, -3.42, 2.10, 1.53, 7.07, repro,
2008-10-11,-2.01, -0.23, -1.77, 2.12, 1.53, 7.13, repro,
2008-10-12,-0.25, 1.04, -1.32, 2.11, 1.53, 7.12, repro,
2008-10-13,-1.48, 1.08, -0.64, 2.15, 1.60, 7.30, repro,
2008-10-14,0.33, 0.70, -5.11, 2.16, 1.59, 7.26, repro,
2008-10-15,-0.23, 0.56, -1.17, 2.15, 1.56, 7.27, repro,
2008-10-16,-0.67, 1.16, -0.74, 2.18, 1.57, 7.32, repro,
2008-10-17,-1.44, 0.68, -1.93, 2.11, 1.54, 7.12, repro,
2008-10-18,-1.21, -0.08, -0.19, 2.16, 1.62, 7.40, repro,
2008-10-19,-1.26, 0.36, 2.69, 2.11, 1.54, 7.10, repro,
2008-10-20,-2.03, -0.01, 6.56, 2.10, 1.54, 7.06, repro,
2008-10-21,-0.27, 3.87, -1.74, 2.10, 1.54, 7.08, repro,
2008-10-22,-1.17, 1.55, -2.93, 2.11, 1.53, 7.12, repro,
2008-10-23,-1.54, 1.00, 4.58, 2.10, 1.52, 7.04, repro,
2008-10-24,-1.62, 1.23, 2.57, 2.11, 1.54, 7.13, repro,
2008-10-25,-0.44, -0.72, 9.30, 2.10, 1.53, 7.11, repro,
2008-10-26,-0.89, 0.59, -0.09, 2.09, 1.54, 7.12, repro,
2008-10-27,-1.12, 0.89, 1.38, 2.11, 1.54, 7.10, repro,
2008-10-28,-0.28, -0.33, -2.98, 2.24, 1.62, 7.38, repro,
2008-10-29,-1.02, 0.32, 0.43, 2.26, 1.63, 7.46, repro,
2008-10-30,-0.89, 0.62, -4.02, 2.12, 1.54, 7.17, repro,
2008-10-31,0.72, -0.24, 1.38, 2.21, 1.62, 7.49, repro,
2008-11-01,-2.01, -0.79, 6.75, 2.12, 1.56, 7.19, repro,
2008-11-02,-0.70, -0.92, 10.55, 2.14, 1.58, 7.25, repro,
2008-11-03,-1.45, 0.60, 9.16, 2.14, 1.58, 7.29, repro,
2008-11-04,0.40, 0.44, 8.33, 2.14, 1.58, 7.24, repro,
2008-11-05,-1.13, 0.70, 2.32, 2.14, 1.60, 7.30, repro,
2008-11-06,-1.11, 1.69, -3.43, 2.14, 1.61, 7.32, repro,
2008-11-07,-0.22, 0.65, -1.14, 2.14, 1.60, 7.27, repro,
2008-11-08,-0.33, 0.67, 4.65, 2.15, 1.61, 7.33, repro,
2008-11-09,-3.00, 0.74, 3.63, 2.17, 1.72, 7.68, repro,
2008-11-10,-0.14, -0.60, -2.13, 2.16, 1.60, 7.33, repro,
2008-11-11,-1.60, 1.98, 0.22, 2.25, 1.78, 7.99, repro,
2008-11-12,-0.92, 1.49, 2.14, 2.11, 1.57, 7.21, repro,
2008-11-13,-0.12, 2.67, -0.76, 2.15, 1.58, 7.19, repro,
2008-11-14,-0.79, 0.13, -3.65, 2.24, 1.71, 7.71, repro,
2008-11-15,-0.27, 2.31, -3.00, 2.13, 1.57, 7.24, repro,
2008-11-16,-1.92, 0.86, -5.70, 2.18, 1.65, 7.54, repro,
2008-11-17,-1.92, 1.54, -3.12, 2.26, 1.70, 7.71, repro,
2008-11-18,-2.21, 1.54, -1.18, 2.26, 1.81, 8.11, repro,
2008-11-19,-1.65, 1.68, -2.20, 2.16, 1.65, 7.46, repro,
2008-11-20,-0.53, 1.05, -4.37, 2.20, 1.66, 7.47, repro,
2008-11-21,-0.01, 2.48, -6.21, 2.30, 1.80, 8.13, repro,
2008-11-22,-0.20, 1.82, 8.04, 2.22, 1.72, 7.79, repro,
2008-11-23,-0.21, 2.03, -4.17, 2.19, 1.63, 7.44, repro,
2008-11-24,-0.42, 1.95, -6.01, 2.27, 1.73, 7.74, repro,
2008-11-25,-0.08, 1.07, -7.22, 2.17, 1.66, 7.50, repro,
2008-11-26,-0.17, 0.38, -4.63, 2.11, 1.56, 7.16, repro,
2008-11-27,-0.04, 0.71, -7.60, 2.15, 1.63, 7.47, repro,
2008-11-28,-0.32, 0.80, -1.14, 2.20, 1.69, 7.61, repro,
2008-11-29,-0.80, 2.58, -2.38, 2.21, 1.72, 7.78, repro,
2008-11-30,1.33, 1.29, 6.56, 2.11, 1.55, 7.14, repro,
2008-12-01,-0.24, 2.57, 3.86, 2.12, 1.55, 7.14, repro,
2008-12-02,-0.18, 0.88, 4.04, 2.18, 1.63, 7.41, repro,
2008-12-03,-0.58, 1.72, 0.89, 2.16, 1.63, 7.34, repro,